Regional Weather Roundup
Issued by NWS

Home | Current Version | Previous Version | Text Only | Print | Product List | Glossary On
Versions: 1 2 3 4 5 6 7 8 9 10 11 12 13 14 15 16 17 18 19 20 21 22 23 24 25 26 27 28 29 30 31 32 33 34 35 36 37 38 39 40 41 42 43 44 45 46 47 48 49 50
112
ASUS43 KLSX 030957
RWRMO

WEATHER SUMMARY FOR MISSOURI
NATIONAL WEATHER SERVICE SPRINGFIELD MO
500 AM CDT TUE MAY 03 2016

NOTE: "FAIR" INDICATES FEW OR NO CLOUDS BELOW 12,000 FEET WITH NO
       SIGNIFICANT WEATHER AND/OR OBSTRUCTIONS TO VISIBILITY.
       CURRENT SKY AND/OR WEATHER CONDITIONS ARE NOT AVAILABLE FOR
       CHILLICOTHE AND FARMINGTON.

MOZ001>031-035>038-043-044-053-054-031100-
...NORTHERN AND WESTERN MISSOURI...

CITY           SKY/WX    TMP DP  RH WIND       PRES   REMARKS
KANSAS CTY INT CLEAR     44  43  96 W5        30.06S
LEE`S SUMMIT   CLEAR     43  42  97 W5        30.06S
ST JOSEPH      FOG       43  42  97 CALM      30.07S VSB<1/4
CHILLICOTHE      N/A     39  38  96 CALM      30.07S

$$
MOZ066>068-077>081-088>096-101>105-031100-
...SOUTHWEST MISSOURI...

CITY           SKY/WX    TMP DP  RH WIND       PRES   REMARKS
SPRINGFIELD    PTCLDY    45  42  89 CALM      30.05S FOG
JOPLIN         FOG       41  40  96 CALM      30.08S VSB 1/2

$$
MOZ032>034-039>042-045>050-055>058-069>072-031100-
...CENTRAL MISSOURI...

CITY           SKY/WX    TMP DP  RH WIND       PRES   REMARKS
COLUMBIA       NOT AVBL
JEFFERSON CITY FOG       45  45 100 NW3       30.05S VSB 1/4
ROLLA          CLOUDY    48  47  96 NW3       30.02S
SEDALIA        CLEAR     46  44  93 W7        30.06S FOG

$$
MOZ051-052-059>065-031100-
...EAST CENTRAL MISSOURI...

CITY           SKY/WX    TMP DP  RH WIND       PRES   REMARKS
ST LOUIS INTL  MOCLDY    52  48  86 W6        30.01S

$$
MOZ072>076-082>087-097>100-106>115-031100-
...SOUTH CENTRAL AND SOUTHEAST MISSOURI...

CITY           SKY/WX    TMP DP  RH WIND       PRES   REMARKS
CAPE GIRARDEAU CLOUDY    54  49  83 NW7       29.99S
POPLAR BLUFF   CLOUDY    54  48  80 NW3       30.00S
WEST PLAINS    CLOUDY    50  45  83 N3        30.04S

$$



USA.gov is the U.S. government's official web portal to all federal, state and local government web resources and services.